Vorticity
nan nan nan nan nan nan nan nan nan nan nan nan nan nan nan nan nan nan nan nan nan nan nan nan nan nan nan nan nan nan nan nan
nan 6 7 7 9 8 6 7 7 6 5 5 6 7 7 7 6 6 6 5 6 6 6 6 6 5 5 5 5 8 6 nan
nan 6 5 5 5 9 10 8 6 6 7 6 3 6 9 8 8 7 7 6 6 6 6 6 6 8 8 6 7 8 7 nan
nan 6 7 5 5 8 7 7 9 9 8 7 6 7 7 9 10 9 8 7 7 7 7 7 5 6 10 10 8 6 7 nan
nan 6 8 6 5 4 7 9 8 10 9 6 7 6 7 6 8 10 12 9 7 9 8 8 7 5 5 8 7 7 6 nan
nan 9 6 5 5 6 6 6 7 8 10 7 5 6 8 6 6 9 8 10 8 7 8 9 8 6 5 4 5 6 5 nan
nan 27 13 8 4 5 7 7 7 7 8 9 5 6 7 7 6 7 8 8 8 7 7 8 8 8 7 6 5 6 5 nan
nan 16 25 20 11 7 6 6 9 8 8 9 7 4 6 7 7 6 7 8 7 8 7 7 8 9 8 8 7 6 7 nan
nan 8 13 14 16 12 8 12 11 8 9 11 9 5 4 4 7 7 7 9 9 7 8 7 8 9 10 8 9 8 6 nan
nan 9 7 8 10 11 14 9 7 10 10 12 12 9 6 5 5 8 8 7 9 8 9 8 8 8 9 9 9 11 9 nan
nan 11 8 9 11 9 13 15 11 8 10 9 12 13 8 6 6 7 9 7 6 7 7 9 7 7 7 7 9 9 9 nan
nan 8 10 14 9 9 9 12 11 15 10 6 9 12 13 6 7 7 6 8 6 7 6 5 8 9 10 7 7 6 9 nan
nan 6 13 14 8 8 10 8 10 9 10 13 10 8 11 10 7 9 7 8 8 6 8 6 4 5 7 12 12 11 8 nan
nan 7 13 12 8 8 9 10 10 9 8 10 14 14 11 7 7 9 8 7 9 8 7 7 8 7 -1 9 12 11 14 nan
nan 8 11 8 8 10 10 11 8 6 7 10 9 16 20 12 8 7 8 8 9 9 10 7 5 9 9 -1 9 12 10 nan
nan 7 9 8 7 8 10 11 9 10 9 6 6 9 16 29 26 11 6 9 9 7 8 9 8 3 8 7 1 6 7 nan
nan 7 9 10 7 9 8 9 12 10 8 8 11 11 11 12 16 27 25 11 10 9 7 7 6 9 4 8 6 3 3 nan
nan 7 11 10 6 6 7 8 10 10 10 13 10 11 8 5 8 15 21 24 22 9 9 8 7 7 8 7 9 12 9 nan
nan 8 10 9 7 8 8 7 9 10 12 11 10 10 7 7 10 13 13 13 28 28 17 10 10 10 7 7 9 8 12 nan
nan nan nan nan nan nan nan nan nan nan nan nan nan nan nan nan nan nan nan nan nan nan nan nan nan nan nan nan nan nan nan nan
CAPE
0 4 224 498 743 795 738 691 736 679 611 573 678 752 769 838 758 713 853 957 1007 982 854 774 467 237 189 164 149 74 6 0
0 0 38 112 325 530 544 568 608 566 513 438 415 494 526 622 576 543 652 791 864 905 799 526 316 208 164 136 67 35 0 0
2 0 0 3 29 195 374 433 451 397 402 342 239 163 223 339 418 339 471 499 617 726 747 571 334 145 65 55 49 15 0 0
110 4 0 0 0 5 168 186 332 318 273 196 136 82 71 165 207 268 302 321 372 490 600 545 381 193 115 111 74 17 7 2
299 157 0 0 0 0 0 7 85 110 114 73 62 87 65 70 48 96 92 200 153 231 314 390 369 263 212 83 63 25 3 0
0 273 1 0 0 0 0 0 0 0 27 19 27 12 11 0 0 3 9 1 37 41 94 146 222 218 173 54 0 3 0 0
38 14 141 6 0 0 0 0 0 0 5 30 16 65 11 3 0 0 14 8 3 0 0 11 24 52 50 37 0 0 0 0
196 251 255 226 96 84 45 60 38 0 2 52 112 39 162 52 61 2 20 18 27 9 3 0 4 3 10 4 4 0 0 5
256 430 393 387 687 393 295 127 250 200 167 118 186 152 63 239 146 136 84 110 83 67 18 0 1 0 9 11 3 1 0 0
56 344 369 223 343 625 1111 927 598 453 418 422 424 380 287 149 423 311 278 214 151 156 120 18 1 1 28 38 32 18 12 17
0 9 237 225 276 402 560 1156 1140 1135 895 596 603 711 656 540 384 728 604 351 279 189 95 103 68 31 19 29 21 39 41 36
0 0 12 165 123 22 63 260 707 1459 1535 1160 963 801 1103 937 932 670 826 711 547 382 222 131 141 155 150 102 39 44 61 62
0 0 0 135 0 0 0 3 46 529 813 1344 1583 1224 1074 1351 1196 1211 867 887 819 604 342 178 144 136 102 101 25 116 174 160
0 0 0 0 0 0 2 3 1 36 720 367 519 1012 1698 1332 1474 1486 1266 1019 935 734 506 388 176 192 209 96 127 197 257 631
0 0 0 0 0 0 0 0 0 1 0 1 286 849 1634 1851 1734 1552 1455 1235 1090 874 587 420 350 281 203 159 104 73 56 360
0 0 0 0 0 0 0 3 4 3 7 9 0 27 373 1197 1766 1674 1467 1353 1222 1067 745 550 365 318 196 177 38 15 6 176
0 0 0 0 0 0 0 1 3 9 12 8 7 5 12 3 8 276 1286 1330 1272 1168 954 638 557 412 183 211 249 181 129 309
0 0 0 0 0 0 0 1 2 7 7 12 16 14 7 8 9 7 5 702 1214 1172 965 755 599 519 255 123 161 258 199 205
0 0 0 0 0 0 0 0 4 9 14 14 11 8 7 6 4 5 11 14 33 1101 999 834 632 546 316 135 79 29 0 5
0 0 0 0 4 1 0 3 6 7 10 10 10 10 12 9 6 4 11 14 13 18 86 387 597 330 276 182 13 0 0 0